Location: Warwick
(41.7000°N, 71.4170°W)
Time: 23:30:55
(UTC-05:00)

OTV 5 (USA 277) - Visible Passes

Search period start: 13 December 2017 00:00
Search period end: 23 December 2017 00:00
Orbit: 404 x 417 km, 43.0° (Epoch: 07 September)

Date Brightness Start Highest point End Pass type
(mag) Time Alt. Az. Time Alt. Az. Time Alt. Az.
13 Dec ? 18:15:14 10° W 18:18:17 32° SSW 18:18:47 30° S visible
14 Dec ? 17:24:04 10° W 17:27:18 45° SSW 17:30:33 10° SE visible
15 Dec ? 18:11:08 10° WSW 18:13:11 15° SW 18:15:14 10° S visible
16 Dec ? 17:19:34 10° W 17:22:16 22° SSW 17:24:57 10° SSE visible
